User: anonymous   Login
Location: Unspecified
(0.0000°N, 0.0000°E)
Time: 15:21:09
(UTC+00:00)
Language:

STARLINK-1044 - Orbit

View from above orbital plane
View from above orbital plane
View from above satellite
View from above satellite

Ground track
Ground track

The orbit data is extracted from the following two-line orbital elements,

1 44749C 19074AN  20263.25812421  .00007844  00000-0  53703-3 0  2635
2 44749  53.0006 173.4372 0002008  70.6031  75.6687 15.05586774    16
Epoch (UTC): 19 September 2020 06:11:41
Eccentricity: 0.0002008
inclination: 53.0006°
perigee height: 548 km
apogee height: 551 km
right ascension of ascending node: 173.4372°
argument of perigee: 70.6031°
revolutions per day: 15.05586774
mean anomaly at epoch: 75.6687°
orbit number at epoch: 1

The dashed part of the orbit path shows where the satellite is in the earth's shadow,  

DLR